User: anonymous   Login
Location: Unspecified
(0.0000°N, 0.0000°E)
Time: 09:34:16
(UTC+00:00)
Language:

Nimbus 6 - Orbit

View from above orbital plane
View from above orbital plane
View from above satellite
View from above satellite

Ground track
Ground track

The orbit data is extracted from the following two-line orbital elements,

1  7924U 75052A   17295.67494683 -.00000037 +00000-0 +16351-4 0  9993
2  7924 100.2301 174.5404 0007289 277.4601 142.7920 13.40705892072732
Epoch (UTC): 22 October 2017 16:11:55
Eccentricity: 0.0007289
inclination: 100.2301°
perigee height: 1101 km
apogee height: 1112 km
right ascension of ascending node: 174.5404°
argument of perigee: 277.4601°
revolutions per day: 13.40705892
mean anomaly at epoch: 142.7920°
orbit number at epoch: 7273

The dashed part of the orbit path shows where the satellite is in the earth's shadow,  

DLR